STARLINK-2607 (48391 NORAD) Tracking and Keplerian Element Data

This shows tracking and keplerian element data for the satellite.

Feedback or suggestion? Click here.




ElementValue
Catalog48391
NameSTARLINK-2607
Epoch Orbit366
Epoch Day214.91667824
Epoch Year2021
RAAN322.4087
Inclination53.0524
Eccentricity0.000143
Argument of Perigee82.5016
Mean Anonmoly171.2219
Mean Motion15.06444626
Decay Rate-0.00082213
L11 48391U 21038AQ 21214.91667824 -.00082213 00000-0 -55578-2 0 9992
L22 48391 53.0524 322.4087 0001430 82.5016 171.2219 15.06444626 3668

Live tracking and technical data element details for STARLINK-2607 (NORAD 48391). STARLINK-2607 can be tracked NOW for your location showing map with azimuth and elevation plus other details from your city location.

Track the satellite on the map from your city or location and see movement details for azimuth, elevation, latitude, longitude, range, height, and movement on the map or in text.







IsCatalogInMostPopularTable: catalog: 48391, numindb: 34
Update: records affected: 1



GetName: 48391 STARLINK-2607

Hit Count: updated at: Tue, 03 Aug 2021 21:43:22 GMT